Regional Weather Roundup
Issued by NWS Charleston, SC

Current Version | Previous Version | Graphics & Text | Print | Product List | Glossary On
Versions: 1 2 3 4 5 6 7 8 9 10 11 12 13 14 15 16 17 18 19 20 21 22 23 24 25 26 27 28 29 30 31 32 33 34 35 36 37 38 39 40 41 42 43 44 45 46 47 48 49 50
000 ASUS42 KCHS 240327 RWRCHS REGIONAL WEATHER ROUNDUP NATIONAL WEATHER SERVICE CHARLESTON SC 1100 PM EDT SAT MAY 23 2015 NOTE: "FAIR" INDICATES FEW OR NO CLOUDS BELOW 12,000 FEET WITH NO SIGNIFICANT WEATHER AND/OR OBSTRUCTIONS TO VISIBILITY. NOT ALL STATIONS ARE QUALITY CONTROLLED BY THE NATIONAL WEATHER SERVICE. USE DATA WITH CAUTION...ESPECIALLY DEWPOINT OBSERVATIONS. SCZ027-030-031-034>040-042>050-240400- ...SOUTHEAST SOUTH CAROLINA... CITY SKY/WX TMP DP RH WIND PRES REMARKS N CHARLESTON CLEAR 68 61 78 NE7 30.35S WATERFRONT PAR N/A 74 62 66 E14 30.33R MOUNT PLEASANT LGT RAIN 68 59 73 E3 30.36S JOHNS ISLAND CLEAR 73 59 60 E10 30.35F PINOPOLIS N/A 72 63 73 VRB3 30.29R MONCKS CORNER FAIR 68 61 77 E5 30.36S SUMMERVILLE FAIR 64 61 88 CALM 30.37R BEAUFORT MCAS CLOUDY 73 62 68 E7 30.34R BEAUFORT ARPT MOCLDY 72 63 73 E7 30.33F HILTON HEAD IS CLEAR 75 63 64 NE7 30.34S WALTERBORO CLEAR 64 59 82 E5 30.36S ALLENDALE FAIR 70 61 73 VRB3 30.34S ...SOUTHERN MIDLANDS AND PEE DEE... CITY SKY/WX TMP DP RH WIND PRES REMARKS GEORGETOWN NOT AVBL KINGSTREE NOT AVBL ORANGEBURG CLEAR 68 56 65 SE5 30.36R BARNWELL FAIR 70 61 73 E6 30.36S AIKEN FAIR 68 50 52 E7 30.38S MANNING FAIR 61 50 67 CALM 30.37S COLUMBIA CLEAR 69 50 50 SE5 30.35R SUMTER CLEAR 66 53 63 SE5 30.35R FLORENCE CLEAR 65 55 70 S6 30.37S MYRTLE BEACH CLEAR 72 59 64 E12 30.39S N MYRTLE BEACH CLEAR 73 59 61 SE5 30.37S $$ GAZ063-065-086>088-099>101-113>116-118-119-134>141-150-240400- ...SOUTHEAST GEORGIA... CITY SKY/WX TMP DP RH WIND PRES REMARKS SAVANNAH ARPT PTCLDY 70 62 76 NE7 30.33R HUNTER AAF MOCLDY 74 62 66 E8 30.30R FORT STEWART NOT AVBL STATESBORO PTCLDY 70 65 84 SE5 30.33S SYLVANIA CLEAR 70 64 82 SE5 30.34S CLAXTON FAIR 68 63 83 CALM 30.33S ...CSRA...CENTRAL AND FAR SOUTHEAST GEORGIA... CITY SKY/WX TMP DP RH WIND PRES REMARKS THOMSON CLEAR 64 56 74 E3 30.37S AUGUSTA-BUSH CLEAR 65 51 60 SE5 30.33R AUGUSTA-DANIEL CLEAR 74 51 44 SE8 30.34R SWAINSBORO FAIR 72 63 73 E5 30.33R VIDALIA CLEAR 70 63 78 E7 30.32S EASTMAN FAIR 72 64 77 SE6 30.33R HAZLEHURST FAIR 73 64 75 E8 30.30S ALMA PTCLDY 71 64 78 E7 30.29S WAYCROSS CLEAR 71 67 88 E8 30.29S JESUP FAIR 72 68 88 E5 30.31S BAXLEY FAIR 72 64 78 E7 30.30S BRUNSWICK PTCLDY 75 64 69 E12 30.30S SAINT SIMONS NOT AVBL $$ SCZ027-028-034-036>038-045-046-048>050-GAZ119-141-240400- ...LAKE AND SUPPLEMENTAL COASTAL OBSERVATIONS... STATION/POSITION TIME TEMP WIND PRES WAVE SWELL AIR SEA DIR/SP/G HT/PER HT/PER/DIR (UTC) (F) (DEG/KT/KT) (MB) (FT/S) (FT/S/D) UPR LAKE MARION NOT AVBL WINYAH BAY 0245 72 90/ 11 1027.0S LAKE MURRAY 0200 74 130/ 6/ 12 1026.8R ACE BASIN NERRS NOT AVBL FORT PULASKI 0300 75 78 80/ 19/ 22 1027.3R SAPELO ISLAND 0300 75 70/ 11 1026.0S $$ ANZ835-935-AMZ111-154-330-350-352-354-370-450-454-472-240400- ...C-MAN AND BUOY OBSERVATIONS... STATION/POSITION TIME TEMP WIND PRES WAVE SWELL AIR SEA DIR/SP/G HT/PER HT/PER/DIR (UTC) (F) (DEG/KT/KT) (MB) (FT/S) (FT/S/D) BUOY 41004 0250 75 75 90/ 17/ 19 1027.0R 5/ 5 2/11 BUOY 41008 0250 75 75 100/ 12/ 14 1026.1R 5/ 6 3/ 70/ 6 FOLLY BEACH CMAN 0300 74 90/ 16/ 17 1027.8R CAPERS NEARSHORE 0208 75 100/ 16/ 19 1027.7R FRIPP NEARSHORE 0200 75 100/ 17/ 21 1025.9R STATION/POSITION TIME TEMP WIND PRES WAVE SWELL AIR SEA DIR/SP/G HT/PER HT/PER/DIR (UTC) (F) (DEG/KT/KT) (MB) (FT/S) (FT/S/D) 5E ST. MARYS GA 0221 78 N/A 4/ 6 FRYING PAN BUOY 0250 75 74 110/ 14/ 16 1029.0R 4/ 6 2/ 90/ 8 BUOY 41025 0250 71 78 50/ 8/ 12 1029.7R 3/ 7 3/ 40/ 7 CAPE LOOKOUT NC 0300 70 60/ 11/ 12 1029.2S BUOY 41002 0250 72 74 80/ 21/ 27 1027.8R 7/ 6 2/ 40/ 9 BUOY 41010 0220 78 80 60/ 19/ 23 1023.9R ST AUGUSTINE FL 0300 76 76 90/ 17/ 19 1025.4R $$

USA.gov is the U.S. government's official web portal to all federal, state and local government web resources and services.